TimeCDT,TemperatureF,Dew PointF,Humidity,Sea Level PressureIn,VisibilityMPH,Wind Direction,Wind SpeedMPH,Gust SpeedMPH,PrecipitationIn,Events,Conditions,WindDirDegrees,DateUTC
12:15 AM,39.6,33.4,79,29.97,10.0,Calm,Calm,-,N/A,,Mostly Cloudy,0,2012-11-01 05:15:00
12:35 AM,39.4,33.8,80,29.97,10.0,Calm,Calm,-,N/A,,Mostly Cloudy,0,2012-11-01 05:35:00
12:55 AM,38.5,32.9,80,29.97,10.0,SSW,3.5,-,N/A,,Scattered Clouds,210,2012-11-01 05:55:00
1:15 AM,38.8,32.9,79,29.97,10.0,Calm,Calm,-,N/A,,Clear,0,2012-11-01 06:15:00
1:35 AM,36.5,32.0,84,29.97,10.0,Calm,Calm,-,N/A,,Clear,0,2012-11-01 06:35:00
2:15 AM,35.1,31.8,88,29.96,10.0,SSW,3.5,-,N/A,,Clear,210,2012-11-01 07:15:00
2:35 AM,34.7,31.6,89,29.96,10.0,Calm,Calm,-,N/A,,Clear,0,2012-11-01 07:35:00
2:55 AM,33.6,31.6,92,29.96,10.0,Calm,Calm,-,N/A,,Clear,0,2012-11-01 07:55:00
3:15 AM,33.8,32.0,93,29.96,7.0,Calm,Calm,-,N/A,,Clear,0,2012-11-01 08:15:00
3:35 AM,34.0,32.0,92,29.96,7.0,Calm,Calm,-,N/A,,Clear,0,2012-11-01 08:35:00
3:55 AM,33.8,32.0,93,29.95,7.0,Calm,Calm,-,N/A,,Clear,0,2012-11-01 08:55:00
4:15 AM,33.8,31.8,92,29.95,7.0,Calm,Calm,-,N/A,,Clear,0,2012-11-01 09:15:00
4:35 AM,33.8,32.0,93,29.96,7.0,Calm,Calm,-,N/A,,Clear,0,2012-11-01 09:35:00
4:55 AM,32.0,30.4,94,29.95,7.0,Calm,Calm,-,N/A,,Clear,0,2012-11-01 09:55:00
5:15 AM,32.0,30.7,95,29.96,7.0,Calm,Calm,-,N/A,,Clear,0,2012-11-01 10:15:00
5:35 AM,32.2,30.9,95,29.96,7.0,South,3.5,-,N/A,,Clear,190,2012-11-01 10:35:00
6:15 AM,32.2,30.7,94,29.97,7.0,Calm,Calm,-,N/A,,Clear,0,2012-11-01 11:15:00
6:35 AM,31.6,30.0,94,29.97,7.0,Calm,Calm,-,N/A,,Clear,0,2012-11-01 11:35:00
7:35 AM,38.8,36.0,89,30.00,7.0,North,10.4,-,N/A,,Clear,350,2012-11-01 12:35:00
7:55 AM,39.0,36.0,89,30.01,7.0,NNW,9.2,-,N/A,,Clear,340,2012-11-01 12:55:00
8:35 AM,38.7,36.5,92,30.02,5.0,North,4.6,-,N/A,,Clear,350,2012-11-01 13:35:00
8:55 AM,39.0,36.9,92,30.03,5.0,NNW,6.9,-,N/A,,Clear,340,2012-11-01 13:55:00
9:15 AM,40.1,37.8,91,30.04,5.0,North,11.5,-,N/A,,Clear,350,2012-11-01 14:15:00
9:35 AM,40.5,38.5,93,30.05,4.0,NNW,12.7,-,N/A,,Mostly Cloudy,340,2012-11-01 14:35:00
9:55 AM,41.0,39.0,93,30.05,4.0,North,15.0,19.6,N/A,,Overcast,350,2012-11-01 14:55:00
10:15 AM,40.1,38.7,95,30.06,2.0,North,11.5,19.6,N/A,,Overcast,360,2012-11-01 15:15:00
10:35 AM,40.1,39.2,97,30.07,1.2,North,12.7,-,N/A,,Overcast,350,2012-11-01 15:35:00
10:55 AM,40.3,39.6,97,30.07,1.0,North,9.2,-,N/A,,Overcast,350,2012-11-01 15:55:00
11:15 AM,40.6,40.1,98,30.07,1.5,North,10.4,-,N/A,,Overcast,360,2012-11-01 16:15:00
11:35 AM,41.0,40.3,97,30.07,1.2,North,9.2,-,N/A,,Overcast,360,2012-11-01 16:35:00
11:55 AM,41.2,40.6,98,30.07,2.0,North,10.4,-,N/A,,Overcast,360,2012-11-01 16:55:00
12:15 PM,41.4,40.5,97,30.07,2.5,North,10.4,-,N/A,,Overcast,350,2012-11-01 17:15:00
12:35 PM,41.9,40.8,96,30.06,2.5,North,10.4,-,N/A,,Overcast,360,2012-11-01 17:35:00
12:55 PM,42.1,41.0,96,30.05,3.0,North,10.4,-,N/A,,Overcast,10,2012-11-01 17:55:00
1:15 PM,42.1,40.3,93,30.04,4.0,North,8.1,-,N/A,,Overcast,360,2012-11-01 18:15:00
1:35 PM,42.4,40.6,93,30.03,4.0,NNE,10.4,-,N/A,,Overcast,20,2012-11-01 18:35:00
1:55 PM,42.3,40.3,93,30.03,4.0,North,6.9,-,N/A,,Overcast,350,2012-11-01 18:55:00
2:15 PM,42.8,40.3,91,30.03,5.0,North,5.8,-,N/A,,Overcast,10,2012-11-01 19:15:00
2:35 PM,42.8,40.3,91,30.01,5.0,North,8.1,-,N/A,,Overcast,350,2012-11-01 19:35:00
3:15 PM,43.2,40.1,89,30.00,5.0,NNE,5.8,-,N/A,,Overcast,20,2012-11-01 20:15:00
3:35 PM,43.3,40.1,88,30.00,7.0,North,5.8,-,N/A,,Overcast,350,2012-11-01 20:35:00
4:15 PM,43.7,40.1,87,30.00,7.0,NNW,4.6,-,N/A,,Overcast,340,2012-11-01 21:15:00
4:35 PM,43.9,40.1,87,30.00,10.0,NNE,5.8,-,N/A,,Overcast,20,2012-11-01 21:35:00
4:55 PM,43.7,39.4,85,30.01,10.0,North,3.5,-,N/A,,Mostly Cloudy,360,2012-11-01 21:55:00
5:15 PM,44.1,39.2,83,30.01,10.0,NNW,5.8,-,N/A,,Mostly Cloudy,340,2012-11-01 22:15:00
5:35 PM,43.2,38.7,84,30.00,10.0,NNW,3.5,-,N/A,,Scattered Clouds,330,2012-11-01 22:35:00
6:15 PM,41.2,37.6,87,29.98,10.0,West,3.5,-,N/A,,Clear,280,2012-11-01 23:15:00
6:35 PM,39.4,36.3,89,29.98,10.0,Calm,Calm,-,N/A,,Clear,0,2012-11-01 23:35:00
6:55 PM,37.8,35.2,91,29.98,10.0,Calm,Calm,-,N/A,,Clear,0,2012-11-01 23:55:00
7:15 PM,36.5,34.5,93,29.98,7.0,Calm,Calm,-,N/A,,Clear,0,2012-11-02 00:15:00
7:35 PM,34.7,33.1,94,30.00,7.0,Calm,Calm,-,N/A,,Clear,0,2012-11-02 00:35:00
7:55 PM,34.9,33.3,94,30.00,7.0,Calm,Calm,-,N/A,,Clear,0,2012-11-02 00:55:00
8:15 PM,34.3,32.9,94,30.00,5.0,Calm,Calm,-,N/A,,Clear,0,2012-11-02 01:15:00
8:35 PM,35.2,34.3,97,30.00,7.0,Calm,Calm,-,N/A,,Clear,0,2012-11-02 01:35:00
8:55 PM,32.2,31.6,98,29.98,3.0,Calm,Calm,-,N/A,,Clear,0,2012-11-02 01:55:00
9:15 PM,32.0,31.8,99,29.98,5.0,Calm,Calm,-,N/A,,Clear,0,2012-11-02 02:15:00
9:35 PM,32.0,31.6,99,29.98,3.0,Calm,Calm,-,N/A,,Clear,0,2012-11-02 02:35:00
9:55 PM,30.6,30.2,99,29.98,0.2,Calm,Calm,-,N/A,Fog,Light Freezing Fog,0,2012-11-02 02:55:00
10:15 PM,30.4,30.4,100,29.98,0.8,Calm,Calm,-,N/A,,Mostly Cloudy,0,2012-11-02 03:15:00
10:35 PM,30.2,30.0,99,29.98,0.5,Calm,Calm,-,N/A,Fog,Light Freezing Fog,0,2012-11-02 03:35:00
10:55 PM,29.8,29.8,100,29.99,0.8,Calm,Calm,-,N/A,,Mist,0,2012-11-02 03:55:00
11:15 PM,30.2,30.2,100,29.99,0.8,Calm,Calm,-,N/A,,Mist,0,2012-11-02 04:15:00
11:35 PM,30.2,30.2,100,30.00,0.8,Calm,Calm,-,N/A,,Mist,0,2012-11-02 04:35:00
11:55 PM,30.2,30.2,100,30.01,4.0,Calm,Calm,-,N/A,,Clear,0,2012-11-02 04:55:00